Regional Weather Roundup
Issued by NWS

Home | Current Version | Previous Version | Graphics & Text | Print | Product List | Glossary Off
Versions: 1 2 3 4 5 6 7 8 9 10 11 12 13 14 15 16 17 18 19 20 21 22 23 24 25 26 27 28 29 30 31 32 33 34 35 36 37 38 39 40 41 42 43 44 45 46 47 48 49 50

000
ASUS43 KTOP 180459
RWRKS

WEATHER ROUNDUP FOR KANSAS
NATIONAL WEATHER SERVICE GOODLAND KS
1200 AM CDT FRI AUG 18 2017

NOTE:  "FAIR" INDICATES FEW OR NO CLOUDS BELOW 12,000 FEET WITH NO
SIGNIFICANT WEATHER AND/OR OBSTRUCTIONS TO VISIBILITY.

KSZ001>006-013>018-027>032-041>047-180600-
NORTHWEST KANSAS

CITY           SKY/WX    TMP DP  RH WIND       PRES   REMARKS
GOODLAND       CLEAR     66  60  81 S14       30.05R
HAYS           TSTM      71  60  68 W41G51    30.11R
HILL CITY      CLOUDY    66  61  84 S14       30.03F
RUSSELL        CLOUDY    75  58  55 S12       29.98R
$$

KSZ061>065-074>080-084>089-180600-
SOUTHWEST KANSAS

CITY           SKY/WX    TMP DP  RH WIND       PRES   REMARKS
DODGE CITY     CLOUDY    75  59  57 S12       30.05R
ELKHART          N/A     62  63 100 S10         N/A
GARDEN CITY    LGT RAIN  69  60  73 S16       30.03F
GREAT BEND     CLOUDY    74  60  61 S8        30.01
LIBERAL        TSTM      67  62  84 SE14      30.05S
$$

KSZ066>073-081>083-090>101-180600-
SOUTHEAST KANSAS

CITY           SKY/WX    TMP DP  RH WIND       PRES   REMARKS
CHANUTE        CLOUDY    68  64  87 S5        29.99S
COFFEYVILLE    CLEAR     68  66  93 CALM      29.99F
HUTCHINSON     PTCLDY    69  61  75 S5        29.99F
MEDICINE LODGE   N/A     75  61  61 S5        30.02R
NEWTON         CLOUDY    70  62  76 S9        30.01S
PARSONS        PTCLDY    65  63  93 CALM      30.00F
WICHITA INTL   CLOUDY    70  63  78 S6        30.00S
WICHITA JABRA  CLOUDY    72  60  66 S7        30.00F
WINFIELD       CLOUDY    70  63  78 SE5       30.02F
$$

KSZ007>012-019>026-033>040-048>060-102>105-180600-
NORTHEAST KANSAS

CITY           SKY/WX    TMP DP  RH WIND       PRES   REMARKS
CONCORDIA      CLOUDY    73  59  61 S12       29.94F
EMPORIA        CLOUDY    66  61  84 S7        29.98F
LAWRENCE       CLEAR     63  63 100 CALM      29.96S
MANHATTAN      CLEAR     65  64  97 CALM      29.96F
OLATHE IND     PTCLDY    70  62  76 SW7       29.98S
OLATHE EXE     CLEAR     71  62  73 CALM      29.97S
SALINA         CLOUDY    69  60  73 S9        29.97S
TOPEKA BILLARD CLEAR     65  63  93 CALM      29.95F
TOPEKA FORBES  CLEAR     68  62  81 S3        29.96F
$$




USA.gov is the U.S. government's official web portal to all federal, state and local government web resources and services.